Regional Weather Roundup
Issued by NWS

Home | Current Version | Previous Version | Graphics & Text | Print | Product List | Glossary On
Versions: 1 2 3 4 5 6 7 8 9 10 11 12 13 14 15 16 17 18 19 20 21 22 23 24 25 26 27 28 29 30 31 32 33 34 35 36 37 38 39 40 41 42 43 44 45 46 47 48 49 50
912
ASUS43 KOAX 240102
RWRNE

WEATHER ROUNDUP FOR NEBRASKA
NATIONAL WEATHER SERVICE OMAHA NE
800 PM CDT MON MAY 23 2016

NOTES: SATELLITE DATA IS BEING USED TO AUGMENT CLOUD COVER ABOVE
       12000 FEET.
       "FAIR" INDICATES FEW OR NO CLOUDS BELOW 12,000 FEET WITH NO
       SIGNIFICANT WEATHER AND/OR OBSTRUCTIONS TO VISIBILITY.

  * THESE STATIONS DO NOT REPORT WEATHER SUCH AS RAIN...SNOW OR FOG.

NEZ001>004-019>022-054>056-240200-
NEBRASKA PANHANDLE

CITY           SKY/WX    TMP DP  RH WIND       PRES   REMARKS
SCOTTSBLUFF    PTSUNNY   55  46  71 SE14      29.87F
ALLIANCE       LGT RAIN  51  45  79 S17G24    29.91R
CHADRON        CLOUDY    68  34  28 S20G29    29.78R
SIDNEY         MOSUNNY   53  43  68 N22G32    29.89S
$$

NEZ057>060-069>072-079>082-240200-
SOUTHWEST NEBRASKA

CITY           SKY/WX    TMP DP  RH WIND       PRES   REMARKS
NORTH PLATTE   CLEAR     72  51  47 NW6       29.78S HAZE
IMPERIAL       SUNNY     72  41  32 E5        29.81S
LEXINGTON      CLEAR     76  54  45 CALM      29.76S
MCCOOK         CLEAR     76  49  38 CALM      29.77F
$$

NEZ005>010-023>029-035>040-094-240200-
NORTH CENTRAL NEBRASKA

CITY           SKY/WX    TMP DP  RH WIND       PRES   REMARKS
VALENTINE      SUNNY     73  37  27 W9        29.74S
AINSWORTH      CLEAR     74  39  28 W7        29.75S
BROKEN BOW     CLEAR     76  46  34 NW5       29.76S
ORD            CLEAR     75  53  46 S3        29.73S
$$

NEZ041-046>049-061>064-073>077-083>087-240200-
SOUTH CENTRAL NEBRASKA

CITY           SKY/WX    TMP DP  RH WIND       PRES   REMARKS
GRAND ISLAND   TSTM      63  61  93 S20       29.75F VSB 1/4
HASTINGS       LGT RAIN  69  65  86 SE9       29.75S
KEARNEY *      MOCLDY    72  64  78 CALM      29.76R
YORK           CLOUDY    72  59  64 S8        29.76R
$$

NEZ011>018-030>034-042>045-240200-
NORTHEAST NEBRASKA

CITY           SKY/WX    TMP DP  RH WIND       PRES   REMARKS
NORFOLK        CLOUDY    70  62  76 S5        29.75R
ALBION         CLOUDY    73  61  66 S7        29.75S
FREMONT        CLOUDY    67  66  95 E6        29.77S
TEKAMAH        LGT RAIN  66  64  93 S8        29.76F
$$

NEZ050>053-065>068-078-088>093-240200-
SOUTHEAST NEBRASKA

CITY           SKY/WX    TMP DP  RH WIND       PRES   REMARKS
LINCOLN        CLOUDY    73  61  65 SE16G22   29.77R
OMAHA EPPLEY   CLOUDY    71  63  75 S9        29.77S
FALLS CITY     CLOUDY    70  62  76 SE9       29.79S
PLATTSMOUTH    CLOUDY    73  64  73 SE9       29.78S
$$

NEZ044-045-051>053-067-240200-
OMAHA AREA

CITY           SKY/WX    TMP DP  RH WIND       PRES   REMARKS
OMAHA EPPLEY   CLOUDY    71  63  75 S9        29.77S
FREMONT        CLOUDY    67  66  95 E6        29.77S
OFFUTT AFB     CLOUDY    71  64  76 SE9       29.77S
PLATTSMOUTH    CLOUDY    73  64  73 SE9       29.78S
$$




USA.gov is the U.S. government's official web portal to all federal, state and local government web resources and services.